Location: Newark
(35.8833°N, 14.5000°E)
Time: 02:10:54
(UTC+00:00)

Altair - Pass Details

Date: 23 November 2019
Orbit: 1502 x 1682 km, 47.2° (Epoch: 14 December)

Event Time Altitude Azimuth Distance (km) Brightness Sun altitude
Rises 02:20:16 0° 265° (W) 4,651 - -41.3°
Reaches altitude 10° 02:23:29 10° 271° (W) 3,659 - -40.7°
Maximum altitude 02:32:15 48° 344° (NNW) 1,893 - -38.9°
Exits shadow 02:33:46 44° 10° (N) 1,969 8.0 -38.6°
Drops below altitude 10° 02:41:05 10° 57° (ENE) 3,676 10.0 -37.1°
Sets 02:44:20 0° 63° (ENE) 4,674 10.8 -36.5°
